sat.trackr.live / text

‹ back to catalog

KUIPER-00130

NORAD 65959 · 2025-228N

PAYLOAD ACTIVE UNKNOWN

§ Identity

Operator
Country
US
Launch date
2025-10-14
Launch site
AFETR
Launch vehicle
Mass (kg)
RCS (m²)

External: N2YO · Heavens-Above · Gunter

§ Orbital elements

Epoch: 2026-09-20T07:51:05.392800Z

Period
97.30 min
Inclination
51.9022°
Eccentricity
0.0000902
Mean motion
14.79929707 rev/d
Perigee alt
628.9 km
Apogee alt
630.2 km
Semi-major
7,007.7 km
B*
1.1055e-4
RAAN
209.9710°
Arg perigee
77.7809°
Mean anomaly
282.3254°
Rev number
4,248

§ Raw data

KUIPER-001301 65959U 25228N   26263.32714575  .00000622  00000+0  11055-3 0  99902 65959  51.9022 209.9710 0000902  77.7809 282.3254 14.79929707 42481

JSON: /api/v1/satellites/65959 · /tle

For live sub-satellite position, see the globe view (requires WebGL).

§ Visibility from observer

Set your observer location to see the next 7 days of passes ≥ 10°. The values pass through the URL so the page stays shareable.

No JS? Fill the form by hand. The geolocation button needs JavaScript.